GW4578 Weather Reports


Display with metric or nautical units.
time (UTC)temp
F
wind
direction
speed
MPH
gust
MPH
rain 1hr
in
rain 24hr
in
rain mn
in
humidity
%
barometer
mb
20260507150013 54 43 4.0 7.0 0.00 0.00 0.00 34 1011.4
20260507145504 53 31 2.0 5.0 0.00 0.00 0.00 30 1011.3
20260507145006 53 21 2.0 5.0 0.00 0.00 0.00 32 1011.3
20260507144518 54 330 1.0 5.0 0.00 0.00 0.00 31 1011.2
20260507144007 53 360 3.0 4.0 0.00 0.00 0.00 31 1011.5
20260507143507 53 347 3.0 4.0 0.00 0.00 0.00 30 1011.5
20260507143026 52 117 1.0 3.0 0.00 0.00 0.00 34 1011.6
20260507142507 51 117 1.0 3.0 0.00 0.00 0.00 36 1011.5
20260507142011 50 117 1.0 2.0 0.00 0.00 0.00 36 1011.5
20260507141526 50 272 0.0 3.0 0.00 0.00 0.00 38 1011.5
20260507141011 49 277 0.0 4.0 0.00 0.00 0.00 39 1011.5
20260507140504 49 360 3.0 6.0 0.00 0.00 0.00 38 1011.5
20260507140013 48 288 2.0 6.0 0.00 0.00 0.00 41 1011.5
20260507135506 46 289 3.0 6.0 0.00 0.00 0.00 43 1011.5
20260507135005 44 264 3.0 6.0 0.00 0.00 0.00 49 1011.4
20260507134514 43 276 3.0 6.0 0.00 0.00 0.00 46 1011.3
20260507134004 44 283 3.0 7.0 0.00 0.00 0.00 47 1011.3
20260507133510 43 273 3.0 7.0 0.00 0.00 0.00 48 1011.3
20260507133021 42 261 3.0 6.0 0.00 0.00 0.00 47 1011.3
20260507132508 42 264 3.0 6.0 0.00 0.00 0.00 46 1011.3
20260507132008 42 252 3.0 8.0 0.00 0.00 0.00 47 1011.1
20260507131532 41 265 5.0 8.0 0.00 0.00 0.00 46 1011.1
20260507131009 41 287 7.0 9.0 0.00 0.00 0.00 46 1011.1
20260507130508 40 270 7.0 9.0 0.00 0.00 0.00 48 1011.1
20260507130025 40 284 6.0 10.0 0.00 0.00 0.00 48 1011.0
20260507125510 39 288 7.0 10.0 0.00 0.00 0.00 49 1010.9
20260507125011 38 268 6.0 10.0 0.00 0.00 0.00 48 1010.8
20260507124515 38 267 6.0 10.0 0.00 0.00 0.00 49 1010.7
20260507124009 38 258 7.0 10.0 0.00 0.00 0.00 49 1010.7
20260507123506 38 273 7.0 10.0 0.00 0.00 0.00 50 1010.6
20260507123022 37 262 7.0 10.0 0.00 0.00 0.00 49 1010.6
20260507122507 37 251 6.0 9.0 0.00 0.00 0.00 50 1010.5
20260507122006 37 267 5.0 9.0 0.00 0.00 0.00 51 1010.5
20260507121518 36 259 5.0 9.0 0.00 0.00 0.00 50 1010.4
20260507121008 36 245 6.0 9.0 0.00 0.00 0.00 50 1010.5
20260507120508 36 257 5.0 9.0 0.00 0.00 0.00 51 1010.4
20260507120022 36 271 7.0 9.0 0.00 0.00 0.00 51 1010.4
20260507115511 35 260 6.0 9.0 0.00 0.00 0.00 51 1010.3
20260507115009 35 267 6.0 10.0 0.00 0.00 0.00 51 1010.3
20260507114523 35 257 6.0 10.0 0.00 0.00 0.00 51 1010.3
20260507114008 35 262 6.0 10.0 0.00 0.00 0.00 51 1010.2
20260507113510 35 276 8.0 10.0 0.00 0.00 0.00 51 1010.2
20260507113012 35 267 5.0 9.0 0.00 0.00 0.00 50 1010.2
20260507112504 36 250 5.0 9.0 0.00 0.00 0.00 50 1010.2
20260507112006 36 268 5.0 9.0 0.00 0.00 0.00 49 1010.2
20260507111518 36 273 6.0 9.0 0.00 0.00 0.00 48 1010.1
20260507111007 37 275 6.0 9.0 0.00 0.00 0.00 47 1010.1
20260507110506 37 259 5.0 10.0 0.00 0.00 0.00 47 1010.0
20260507110022 37 259 5.0 10.0 0.00 0.00 0.00 48 1010.0
20260507105508 37 272 6.0 9.0 0.00 0.00 0.00 48 1010.0
20260507105006 37 273 6.0 10.0 0.00 0.00 0.00 48 1010.0
20260507104528 37 268 6.0 10.0 0.00 0.00 0.00 47 1009.9
20260507104010 37 283 6.0 11.0 0.00 0.00 0.00 47 1009.9
20260507103507 37 279 6.0 11.0 0.00 0.00 0.00 47 1009.8
20260507103029 37 262 6.0 10.0 0.00 0.00 0.00 47 1009.7
20260507102512 37 252 6.0 9.0 0.00 0.00 0.00 48 1009.7
20260507101527 36 265 6.0 10.0 0.00 0.00 0.00 48 1009.7
20260507101005 36 257 7.0 10.0 0.00 0.00 0.00 48 1009.7
20260507100504 36 273 7.0 9.0 0.00 0.00 0.00 48 1009.7
20260507100029 36 263 6.0 9.0 0.00 0.00 0.00 48 1009.7
20260507095508 37 253 7.0 9.0 0.00 0.00 0.00 48 1009.8
20260507095012 37 254 7.0 10.0 0.00 0.00 0.00 47 1009.8
20260507094525 36 266 7.0 10.0 0.00 0.00 0.00 47 1009.8
20260507094007 36 261 5.0 10.0 0.00 0.00 0.00 48 1009.8
20260507093508 37 263 7.0 10.0 0.00 0.00 0.00 47 1009.8
20260507093032 37 262 7.0 10.0 0.00 0.00 0.00 47 1009.8
20260507092514 37 259 7.0 10.0 0.00 0.00 0.00 47 1009.8
20260507092007 37 246 7.0 10.0 0.00 0.00 0.00 46 1009.8
20260507091548 37 254 7.0 10.0 0.00 0.00 0.00 46 1009.7
20260507090511 37 274 6.0 10.0 0.00 0.00 0.00 46 1009.7
20260507085506 37 281 6.0 10.0 0.00 0.00 0.00 47 1009.7
20260507085008 36 260 7.0 10.0 0.00 0.00 0.00 48 1009.7
20260507084527 36 261 6.0 11.0 0.00 0.00 0.00 50 1009.7
20260507084008 36 267 6.0 11.0 0.00 0.00 0.00 51 1009.7
20260507083026 36 259 6.0 8.0 0.00 0.00 0.00 50 1009.6
20260507082508 36 269 4.0 9.0 0.00 0.00 0.00 50 1009.6
20260507081538 36 263 7.0 10.0 0.00 0.00 0.00 49 1009.7
20260507081007 37 256 6.0 9.0 0.00 0.00 0.00 48 1009.6
20260507080510 37 279 6.0 9.0 0.00 0.00 0.00 48 1009.7
20260507080027 37 267 6.0 10.0 0.00 0.00 0.00 47 1009.7
20260507075511 38 257 5.0 10.0 0.00 0.00 0.00 46 1009.7
20260507075014 38 263 6.0 9.0 0.00 0.00 0.00 45 1009.8
20260507074531 38 269 5.0 9.0 0.00 0.00 0.00 45 1009.9
20260507074005 38 274 5.0 10.0 0.00 0.00 0.00 44 1010.0
20260507073023 39 273 6.0 9.0 0.00 0.00 0.00 44 1010.0
20260507072511 39 273 6.0 10.0 0.00 0.00 0.00 44 1010.0
20260507072008 39 248 5.0 10.0 0.00 0.00 0.00 44 1010.0
20260507071526 39 247 6.0 9.0 0.00 0.00 0.00 43 1010.0
20260507071004 39 266 6.0 9.0 0.00 0.00 0.00 43 1010.0
20260507070013 39 262 6.0 9.0 0.00 0.00 0.00 42 1010.0
20260507065004 40 251 6.0 10.0 0.00 0.00 0.00 42 1009.9
20260507064519 40 255 4.0 10.0 0.00 0.00 0.00 41 1010.0
20260507062508 41 267 6.0 10.0 0.00 0.00 0.00 40 1010.1
20260507062006 41 257 7.0 10.0 0.00 0.00 0.00 41 1010.2
20260507061529 41 243 6.0 10.0 0.00 0.00 0.00 41 1010.2
20260507061008 41 261 7.0 10.0 0.00 0.00 0.00 40 1010.2
20260507060007 41 252 6.0 10.0 0.00 0.00 0.00 40 1010.2
20260507054514 42 238 6.0 10.0 0.00 0.00 0.00 40 1010.2
20260507053018 41 272 5.0 8.0 0.00 0.00 0.00 41 1010.2
20260507052007 42 246 4.0 5.0 0.00 0.00 0.00 41 1010.3
20260507051521 42 246 3.0 6.0 0.00 0.00 0.00 41 1010.2
20260507051009 42 242 3.0 6.0 0.00 0.00 0.00 41 1010.2
20260507050506 41 250 3.0 7.0 0.00 0.00 0.00 43 1010.3
20260507050029 39 250 5.0 7.0 0.00 0.00 0.00 46 1010.4
20260507045508 38 121 1.0 2.0 0.00 0.00 0.00 49 1010.4
20260507044526 38 121 1.0 3.0 0.00 0.00 0.00 48 1010.4
20260507043507 39 121 1.0 2.0 0.00 0.00 0.00 50 1010.6
20260507041523 39 121 0.0 2.0 0.00 0.00 0.00 51 1010.9
20260507040023 40 121 0.0 2.0 0.00 0.00 0.00 49 1011.1
20260507035507 41 121 0.0 2.0 0.00 0.00 0.00 48 1011.1
20260507035011 42 121 0.0 2.0 0.00 0.00 0.00 48 1011.2
20260507034522 43 121 0.0 2.0 0.00 0.00 0.00 45 1011.3
20260507034007 44 121 0.0 1.0 0.00 0.00 0.00 48 1011.3
20260507033507 44 121 0.0 2.0 0.00 0.00 0.00 49 1011.3
20260507033015 44 121 0.0 2.0 0.00 0.00 0.00 49 1011.3
20260507031520 45 121 1.0 2.0 0.00 0.00 0.00 47 1011.6
20260507030510 45 121 0.0 2.0 0.00 0.00 0.00 44 1011.7
20260507030025 45 121 0.0 2.0 0.00 0.00 0.00 45 1011.6
20260507025007 45 121 0.0 2.0 0.00 0.00 0.00 43 1011.7
20260507024006 46 121 0.0 2.0 0.00 0.00 0.00 38 1011.7
20260507023510 47 121 0.0 2.0 0.00 0.00 0.00 37 1011.8
20260507023025 47 121 0.0 3.0 0.00 0.00 0.00 39 1011.8
20260507022510 48 121 1.0 3.0 0.00 0.00 0.00 34 1011.8
20260507022011 48 141 1.0 2.0 0.00 0.00 0.00 34 1011.8
20260507021516 48 141 1.0 3.0 0.00 0.00 0.00 34 1011.9
20260507014527 52 287 1.0 2.0 0.00 0.00 0.00 26 1012.0
20260507012514 52 339 0.0 2.0 0.00 0.00 0.00 26 1011.9
20260507012010 53 339 1.0 3.0 0.00 0.00 0.00 27 1012.0
20260507011531 53 337 2.0 3.0 0.00 0.00 0.00 25 1012.0
20260507010020 54 324 3.0 8.0 0.00 0.00 0.00 22 1011.9
20260507005004 54 263 4.0 8.0 0.00 0.00 0.00 22 1012.0
20260507004503 54 271 4.0 9.0 0.00 0.00 0.00 22 1011.9
20260507004004 54 248 2.0 9.0 0.00 0.00 0.00 22 1012.0
20260507003504 55 277 1.0 8.0 0.00 0.00 0.00 21 1011.9
20260507003009 56 257 4.0 8.0 0.00 0.00 0.00 22 1012.0
20260507002503 56 266 4.0 7.0 0.00 0.00 0.00 23 1011.9
20260507002006 55 278 2.0 5.0 0.00 0.00 0.00 23 1012.0
20260507001516 55 323 3.0 7.0 0.00 0.00 0.00 23 1012.2
20260507000503 55 280 2.0 10.0 0.00 0.00 0.00 24 1012.3
20260506235504 55 261 3.0 8.0 0.00 0.00 0.00 23 1012.3
20260506234525 55 297 6.0 11.0 0.00 0.00 0.00 23 1012.5
20260506233004 56 277 4.0 11.0 0.00 0.00 0.00 25 1012.7
20260506232506 56 267 7.0 11.0 0.00 0.00 0.00 24 1012.7
20260506232004 56 274 5.0 11.0 0.00 0.00 0.00 23 1012.6
20260506231512 56 288 6.0 11.0 0.00 0.00 0.00 24 1012.6
20260506231005 56 284 3.0 12.0 0.00 0.00 0.00 20 1012.6
20260506230506 56 254 6.0 12.0 0.00 0.00 0.00 23 1012.8
20260506230015 57 316 6.0 13.0 0.00 0.00 0.00 24 1012.7
20260506224008 57 297 4.0 15.0 0.00 0.00 0.00 26 1012.8
20260506223508 57 272 9.0 15.0 0.00 0.00 0.00 26 1012.9
20260506223021 57 279 7.0 14.0 0.00 0.00 0.00 26 1013.0
20260506222509 56 288 8.0 12.0 0.00 0.00 0.00 26 1012.9
20260506222009 56 333 8.0 18.0 0.00 0.00 0.00 23 1012.9
20260506215006 56 360 10.0 15.0 0.00 0.00 0.00 24 1013.4
20260506214515 57 330 9.0 15.0 0.00 0.00 0.00 23 1013.6
20260506214007 57 306 9.0 18.0 0.00 0.00 0.00 25 1013.6
20260506213511 56 327 8.0 18.0 0.00 0.00 0.00 25 1013.7
20260506212508 56 315 10.0 16.0 0.00 0.00 0.00 23 1013.9
20260506212006 56 302 9.0 23.0 0.00 0.00 0.00 26 1013.9
20260506211525 56 302 10.0 23.0 0.00 0.00 0.00 26 1014.0
20260506211007 56 326 7.0 16.0 0.00 0.00 0.00 27 1014.0
20260506210507 56 323 7.0 16.0 0.00 0.00 0.00 24 1014.3
20260506210010 56 283 6.0 14.0 0.00 0.00 0.00 27 1014.3
20260506205003 55 352 6.0 14.0 0.00 0.00 0.00 27 1014.6
20260506203508 55 333 11.0 14.0 0.00 0.00 0.00 26 1014.8
20260506201538 54 248 8.0 17.0 0.00 0.00 0.00 26 1015.2
20260506201008 54 330 10.0 16.0 0.00 0.00 0.00 27 1015.1
20260506200509 54 294 10.0 16.0 0.00 0.00 0.00 28 1015.2
20260506200027 54 329 9.0 18.0 0.00 0.00 0.00 31 1015.3
20260506195506 54 336 7.0 18.0 0.00 0.00 0.00 29 1015.3
20260506195016 53 339 6.0 13.0 0.00 0.00 0.00 29 1015.3
20260506193508 53 314 11.0 17.0 0.00 0.00 0.00 27 1015.7
20260506190023 52 296 9.0 17.0 0.00 0.00 0.00 30 1016.4
20260506185509 52 336 11.0 17.0 0.00 0.00 0.00 28 1016.5
20260506185007 51 338 7.0 17.0 0.00 0.00 0.00 30 1016.6
20260506184527 52 323 12.0 17.0 0.00 0.00 0.00 29 1016.7
20260506184011 51 304 6.0 15.0 0.00 0.00 0.00 28 1016.7
20260506183509 51 286 8.0 15.0 0.00 0.00 0.00 30 1016.9
20260506181008 50 298 9.0 17.0 0.00 0.00 0.00 32 1017.1
20260506175510 49 360 9.0 12.0 0.00 0.00 0.00 32 1017.6
20260506174526 48 271 10.0 17.0 0.00 0.00 0.00 32 1017.7
20260506174012 49 352 7.0 16.0 0.00 0.00 0.00 31 1017.8
20260506173508 48 360 9.0 16.0 0.00 0.00 0.00 31 1017.8
20260506173026 48 306 7.0 15.0 0.00 0.00 0.00 34 1017.8
20260506172509 48 319 7.0 14.0 0.00 0.00 0.00 31 1018.0
20260506172011 48 335 5.0 15.0 0.00 0.00 0.00 33 1018.0
20260506171519 48 329 11.0 15.0 0.00 0.00 0.00 33 1018.0
20260506171008 48 340 9.0 14.0 0.00 0.00 0.00 31 1018.1
20260506163513 46 360 2.0 14.0 0.00 0.00 0.00 36 1018.2
20260506163038 47 333 8.0 14.0 0.00 0.00 0.00 36 1018.2
20260506162512 46 331 7.0 18.0 0.00 0.00 0.00 33 1018.3
20260506162011 46 301 8.0 18.0 0.00 0.00 0.00 34 1018.4
20260506161527 46 273 9.0 12.0 0.00 0.00 0.00 36 1018.5
20260506161004 45 344 7.0 12.0 0.00 0.00 0.00 36 1018.5
20260506155010 45 281 7.0 14.0 0.00 0.00 0.00 35 1018.7
20260506154506 44 285 10.0 14.0 0.00 0.00 0.00 35 1018.7
20260506154007 44 309 8.0 13.0 0.00 0.00 0.00 36 1018.6
20260506153503 43 318 8.0 13.0 0.00 0.00 0.00 35 1018.7
20260506153009 44 321 8.0 13.0 0.00 0.00 0.00 35 1018.7
20260506152502 44 321 8.0 13.0 0.00 0.00 0.00 34 1018.7
20260506152006 43 308 7.0 15.0 0.00 0.00 0.00 36 1018.8
20260506151003 43 303 11.0 13.0 0.00 0.00 0.00 36 1018.9